Weather History for KUIL - February, 2013

Change the Weather History Date:

Monday, February 4, 2013

  Actual Average Record
Temperature  
Mean Temperature 45 °F 42 °F  
Max Temperature 48 °F 49 °F 65 °F (1993)
Min Temperature 42 °F 36 °F 19 °F (1989)
Degree Days  
Heating Degree Days 20 23  
Month to date heating degree days 82 92  
Since 1 July heating degree days 3190 3297  
Cooling Degree Days 0 0  
Month to date cooling degree days 0 0  
Year to date cooling degree days 0 0  
Moisture  
Dew Point 40 °F    
Average Humidity 80    
Maximum Humidity 89    
Minimum Humidity 71    
Precipitation  
Precipitation 0.00 in 0.39 in 3.07 in (2006)
Month to date precipitation 0.09 1.55  
Year to date precipitation 10.43 16.16  
Sea Level Pressure  
Sea Level Pressure 30.05 in    
Wind  
Wind Speed 4 mph (SSE)    
Max Wind Speed 15 mph    
Max Gust Speed 26 mph    
Visibility 4 miles    
Events Fog    
T = Trace of Precipitation, MM = Missing Value Source: NWS Daily Summary

Daily Weather History Graph

Daily Weather History Graph

Search for Another Location

Airport or City:

Trip Planner

Search our weather history database for the weather conditions in past years. The results will help you decide how hot, cold, wet, or windy it might be!

Date:

Astronomy

Feb. 04, 2013 Rise Set
Actual Time 7:41 AM PST 5:23 PM PST
Civil Twilight 7:08 AM PST 5:56 PM PST
Nautical Twilight 6:31 AM PST 6:33 PM PST
Astronomical Twilight 5:55 AM PST 7:09 PM PST
Moon 2:29 AM PST (2/4) 11:45 AM PST (2/4)
Length of Visible Light 10h 48m
Length of Day
9h 42m
Last Quarter, 36% of the Moon is Illuminated
Feb 4
Last Quarter
Feb 9
New
Feb 17
First Quarter
Feb 25
Full
Mar 4
Last Quarter

Hourly Weather History & Observations

Time (PST) Temp. Windchill Dew Point Humidity Pressure Visibility Wind Dir Wind Speed Gust Speed Precip Events Conditions
12:03 AM 42.8 °F - 39.2 °F 87% 30.20 in 0.5 mi Calm Calm - N/A Fog Fog
12:10 AM 42.8 °F - 39.2 °F 87% 30.20 in 0.2 mi Calm Calm - N/A Fog Fog
12:12 AM 42.8 °F - 39.2 °F 87% 30.20 in 0.5 mi Calm Calm - N/A Fog Fog
12:16 AM 42.8 °F - 39.2 °F 87% 30.20 in 1.5 mi Calm Calm - N/A   Overcast
12:19 AM 42.8 °F - 39.2 °F 87% 30.21 in 3.0 mi Calm Calm - N/A   Overcast
12:33 AM 42.8 °F - 39.2 °F 87% 30.19 in 1.5 mi Calm Calm - N/A   Overcast
12:35 AM 42.8 °F - 39.2 °F 87% 30.19 in 0.8 mi Calm Calm - N/A   Overcast
12:50 AM 42.8 °F - 39.2 °F 87% 30.19 in 1.5 mi Calm Calm - N/A   Overcast
12:53 AM 42.1 °F - 39.0 °F 89% 30.19 in 2.5 mi Calm Calm - N/A   Overcast
1:00 AM 42.8 °F - 39.2 °F 87% 30.19 in 3.0 mi Calm Calm - N/A   Overcast
1:25 AM 42.8 °F - 39.2 °F 87% 30.18 in 3.0 mi Calm Calm - N/A   Overcast
2:53 AM 44.6 °F 43.1 °F 41.0 °F 87% 30.18 in 4.0 mi SSE 3.5 mph - N/A   Overcast
3:12 AM 44.6 °F 43.1 °F 41.0 °F 87% 30.18 in 4.0 mi SE 3.5 mph - N/A   Overcast
3:53 AM 44.6 °F 42.2 °F 41.0 °F 87% 30.17 in 4.0 mi SE 4.6 mph - N/A   Overcast
4:53 AM 44.1 °F - 41.0 °F 89% 30.17 in 5.0 mi Calm Calm - N/A   Overcast
5:53 AM 44.1 °F 42.5 °F 39.9 °F 85% 30.14 in 4.0 mi SE 3.5 mph - N/A   Overcast
6:53 AM 44.1 °F 41.5 °F 39.9 °F 85% 30.13 in 5.0 mi SE 4.6 mph - N/A   Overcast
7:20 AM 44.6 °F - 41.0 °F 87% 30.13 in 5.0 mi Calm Calm - N/A   Overcast
7:53 AM 45.0 °F 43.5 °F 39.9 °F 82% 30.13 in 5.0 mi SSE 3.5 mph - N/A   Haze
8:53 AM 45.0 °F 43.5 °F 41.0 °F 86% 30.13 in 3.0 mi SSE 3.5 mph - N/A   Overcast
9:06 AM 44.6 °F 42.2 °F 41.0 °F 87% 30.12 in 2.5 mi SE 4.6 mph - N/A   Overcast
9:29 AM 44.6 °F - 41.0 °F 87% 30.12 in 4.0 mi Calm Calm - N/A   Overcast
9:53 AM 46.0 °F - 41.0 °F 83% 30.12 in 4.0 mi Calm Calm - N/A   Haze
10:31 AM 46.4 °F 43.5 °F 41.0 °F 81% 30.12 in 4.0 mi Variable 5.8 mph - N/A   Haze
10:53 AM 46.9 °F - 41.0 °F 80% 30.13 in 4.0 mi Calm Calm - N/A   Haze
11:53 AM 46.9 °F - 39.9 °F 77% 30.11 in 4.0 mi SSE 8.1 mph - N/A   Haze
12:53 PM 48.0 °F - 39.9 °F 74% 30.07 in 5.0 mi Variable 4.6 mph - N/A   Haze
1:53 PM 48.0 °F - 39.9 °F 74% 30.04 in 5.0 mi SSE 4.6 mph - N/A   Haze
2:53 PM 48.0 °F - 39.9 °F 74% 30.02 in 4.0 mi South 4.6 mph - N/A   Haze
3:53 PM 48.0 °F - 41.0 °F 77% 30.01 in 4.0 mi South 4.6 mph - N/A   Haze
4:53 PM 48.0 °F - 39.9 °F 74% 29.99 in 4.0 mi SE 4.6 mph - N/A   Haze
5:53 PM 46.9 °F - 39.9 °F 77% 29.92 in 6.0 mi Calm Calm - N/A   Haze
6:53 PM 46.0 °F 44.8 °F 39.9 °F 79% 29.91 in 5.0 mi South 3.5 mph - N/A   Haze
7:50 PM 46.4 °F 45.2 °F 41.0 °F 81% 29.91 in 5.0 mi Variable 3.5 mph - N/A   Haze
7:53 PM 46.9 °F - 41.0 °F 80% 29.91 in 5.0 mi Variable 5.8 mph - N/A   Haze
8:53 PM 48.0 °F - 41.0 °F 77% 29.89 in 5.0 mi SSE 9.2 mph - N/A   Haze
9:53 PM 48.0 °F - 39.9 °F 74% 29.87 in 5.0 mi SSE 6.9 mph - N/A   Haze
10:15 PM 48.2 °F - 39.2 °F 71% 29.85 in 5.0 mi SSE 11.5 mph 20.7 mph N/A   Haze
10:33 PM 48.2 °F - 41.0 °F 76% 29.85 in 3.0 mi Variable 6.9 mph - N/A   Haze
10:53 PM 48.0 °F - 39.9 °F 74% 29.86 in 5.0 mi South 9.2 mph 21.9 mph N/A   Haze
11:13 PM 48.2 °F - 39.2 °F 71% 29.84 in 5.0 mi Variable 5.8 mph 19.6 mph N/A   Haze
11:27 PM 48.2 °F - 39.2 °F 71% 29.83 in 5.0 mi Variable 6.9 mph 26.5 mph N/A   Haze
11:37 PM 48.2 °F - 39.2 °F 71% 29.82 in 5.0 mi South 10.4 mph 25.3 mph N/A   Haze
11:51 PM 48.2 °F - 39.2 °F 71% 29.82 in 5.0 mi South 10.4 mph 25.3 mph N/A   Haze
11:53 PM 48.0 °F - 39.9 °F 74% 29.83 in 5.0 mi South 10.4 mph 25.3 mph N/A   Haze